Weather History for KTDZ - October, 2012

Change the Weather History Date:

Thursday, October 4, 2012

  Actual Average (KTOL) Record (KTOL)
Temperature  
Mean Temperature 65 °F 56 °F  
Max Temperature 75 °F 68 °F 92 °F (1951)
Min Temperature 55 °F 45 °F 27 °F (1989)
Degree Days  
Heating Degree Days 0 9  
Month to date heating degree days 35  
Since 1 July heating degree days 159  
Cooling Degree Days 0 1  
Month to date cooling degree days 4  
Year to date cooling degree days 788  
Growing Degree Days 15 (Base 50)    
Moisture  
Dew Point 52 °F    
Average Humidity 66    
Maximum Humidity 84    
Minimum Humidity 41    
Precipitation  
Precipitation 0.00 in 0.08 in 1.27 in (2000)
Month to date precipitation 0.35  
Year to date precipitation 26.45  
Snow  
Snow 0.00 in 0.00 in - ()
Month to date snowfall 0.0  
Since 1 July snowfall 0.0  
Since 1 September snowfall 0.0  
Snow Depth -    
Sea Level Pressure  
Sea Level Pressure 30.09 in    
Wind  
Wind Speed 8 mph (SSW)    
Max Wind Speed 16 mph    
Max Gust Speed 24 mph    
Visibility 10 miles    
Events      
T = Trace of Precipitation, MM = Missing Value Source: NWS Daily Summary

Daily Weather History Graph

Daily Weather History Graph

Search for Another Location

Airport or City:

Trip Planner

Search our weather history database for the weather conditions in past years. The results will help you decide how hot, cold, wet, or windy it might be!

Date:

Astronomy

Oct. 04, 2012 Rise Set
Actual Time 7:34 AM EDT 7:09 PM EDT
Civil Twilight 7:06 AM EDT 7:37 PM EDT
Nautical Twilight 6:34 AM EDT 8:09 PM EDT
Astronomical Twilight 6:02 AM EDT 8:41 PM EDT
Moon 9:41 PM EDT (10/4) 11:54 AM EDT (10/4)
Length of Visible Light 12h 30m
Length of Day
11h 35m
Waning Gibbous, 82% of the Moon is Illuminated
Oct 4
Waning Gibbous
Oct 8
Last Quarter
Oct 15
New
Oct 21
First Quarter
Oct 29
Full

Hourly Weather History & Observations

Time (EDT) Temp. Dew Point Humidity Pressure Visibility Wind Dir Wind Speed Gust Speed Precip Events Conditions
12:53 AM 59.0 °F 53.1 °F 81% 30.10 in 10.0 mi South 6.9 mph - N/A   Partly Cloudy
1:53 AM 57.0 °F 52.0 °F 83% 30.11 in 10.0 mi South 5.8 mph - N/A   Clear
2:53 AM 60.1 °F 53.1 °F 78% 30.11 in 10.0 mi South 6.9 mph - N/A   Overcast
3:53 AM 59.0 °F 52.0 °F 78% 30.10 in 10.0 mi SSW 5.8 mph - N/A   Partly Cloudy
4:53 AM 55.9 °F 51.1 °F 84% 30.11 in 10.0 mi South 6.9 mph - N/A   Clear
5:53 AM 55.9 °F 51.1 °F 84% 30.10 in 10.0 mi SSW 6.9 mph - N/A   Clear
6:53 AM 57.0 °F 50.0 °F 77% 30.11 in 10.0 mi SSW 9.2 mph - N/A   Clear
7:53 AM 55.9 °F 50.0 °F 80% 30.12 in 10.0 mi SSW 6.9 mph - N/A   Clear
8:53 AM 59.0 °F 51.1 °F 75% 30.12 in 10.0 mi SSW 10.4 mph - N/A   Clear
9:53 AM 62.1 °F 52.0 °F 70% 30.12 in 10.0 mi WSW 13.8 mph - N/A   Clear
10:53 AM 66.0 °F 52.0 °F 60% 30.13 in 10.0 mi SW 12.7 mph - N/A   Clear
11:53 AM 66.0 °F 52.0 °F 60% 30.14 in 10.0 mi SW 12.7 mph - N/A   Overcast
12:53 PM 69.1 °F 53.1 °F 57% 30.13 in 10.0 mi SW 9.2 mph 17.3 mph N/A   Overcast
1:53 PM 72.0 °F 52.0 °F 49% 30.10 in 10.0 mi SW 10.4 mph - N/A   Scattered Clouds
2:53 PM 73.9 °F 51.1 °F 45% 30.08 in 10.0 mi WSW 12.7 mph 21.9 mph N/A   Clear
3:53 PM 75.0 °F 50.0 °F 41% 30.07 in 10.0 mi SW 16.1 mph 24.2 mph N/A   Clear
4:53 PM 75.0 °F 51.1 °F 43% 30.06 in 10.0 mi SW 12.7 mph - N/A   Partly Cloudy
6:53 PM 72.0 °F 51.1 °F 48% 30.06 in 10.0 mi SW 6.9 mph - N/A   Clear
7:53 PM 66.9 °F 51.1 °F 57% 30.05 in 10.0 mi South 5.8 mph - N/A   Clear
8:53 PM 63.0 °F 52.0 °F 67% 30.05 in 10.0 mi South 8.1 mph - N/A   Clear
9:53 PM 66.0 °F 53.1 °F 63% 30.05 in 10.0 mi South 6.9 mph - N/A   Clear
10:53 PM 66.0 °F 53.1 °F 63% 30.04 in 10.0 mi SSW 10.4 mph - N/A   Clear
11:53 PM 66.9 °F 55.0 °F 66% 30.04 in 10.0 mi SW 10.4 mph - N/A   Overcast